FW1643 Weather Reports


Display with metric or nautical units.
time (UTC)temp
F
wind
direction
speed
MPH
gust
MPH
rain 1hr
in
rain 24hr
in
rain mn
in
humidity
%
barometer
mb
20260504034551 53 274 0.0 0.0 0.00 0.00 0.00 60 995.4
20260504033045 50 260 0.0 0.0 0.00 0.00 0.00 64 995.3
20260504031556 48 241 0.0 0.0 0.00 0.00 0.00 68 995.3
20260504030041 45 241 0.0 0.0 0.00 0.00 0.00 71 995.2
20260504024541 43 247 0.0 0.0 0.00 0.00 0.00 72 995.0
20260504023037 43 265 0.0 0.0 0.00 0.00 0.00 72 995.2
20260504021536 41 297 0.0 0.0 0.00 0.00 0.00 73 995.0
20260504020039 41 289 0.0 0.0 0.00 0.00 0.00 73 995.0
20260504014534 41 265 0.0 0.0 0.00 0.00 0.00 73 995.1
20260504013033 41 289 0.0 0.0 0.00 0.00 0.00 74 995.2
20260504011533 41 255 0.0 0.0 0.00 0.00 0.00 75 995.2
20260504010038 39 281 0.0 0.0 0.00 0.00 0.00 76 995.3
20260504004531 39 256 0.0 0.0 0.00 0.00 0.00 75 995.4
20260504003028 40 256 0.0 0.0 0.00 0.00 0.00 74 995.4
20260504001526 40 265 0.0 0.0 0.00 0.00 0.00 74 995.3
20260504000024 41 256 0.0 0.0 0.00 0.00 0.00 72 995.5
20260503234525 42 256 0.0 0.0 0.00 0.00 0.00 71 995.4
20260503233018 42 265 0.0 0.0 0.00 0.00 0.00 70 995.4
20260503231518 43 255 0.0 0.0 0.00 0.00 0.00 69 995.5
20260503230016 44 255 0.0 0.0 0.00 0.00 0.00 69 995.5
20260503224512 45 265 0.0 0.0 0.00 0.00 0.00 67 995.5
20260503223021 47 265 0.0 0.0 0.00 0.00 0.00 64 995.4
20260503221511 48 249 0.0 0.0 0.00 0.00 0.00 63 995.5
20260503220012 48 253 0.0 0.0 0.00 0.00 0.00 63 995.5
20260503214507 47 247 0.0 0.0 0.00 0.00 0.00 65 995.4
20260503213004 47 265 0.0 0.0 0.00 0.00 0.00 67 995.5
20260503211500 45 265 0.0 0.0 0.00 0.00 0.00 70 995.6
20260503210059 44 265 0.0 0.0 0.00 0.00 0.00 70 995.6
20260503204617 45 238 0.0 0.0 0.00 0.00 0.00 69 995.7
20260503203109 45 238 0.0 0.0 0.00 0.00 0.00 69 995.7
20260503201556 45 265 0.0 0.0 0.00 0.00 0.00 70 995.7
20260503200056 46 265 0.0 0.0 0.00 0.00 0.00 70 995.7
20260503194555 46 265 0.0 0.0 0.00 0.00 0.00 70 995.6
20260503193055 46 222 0.0 0.0 0.00 0.00 0.00 71 995.6
20260503191604 46 265 0.0 0.0 0.00 0.00 0.00 71 995.8
20260503190055 46 217 0.0 0.0 0.00 0.00 0.00 69 995.8
20260503184605 47 226 0.0 0.0 0.00 0.00 0.00 67 995.9
20260503183049 48 265 0.0 0.0 0.00 0.00 0.00 67 995.9
20260503181551 49 265 0.0 0.0 0.00 0.00 0.00 66 995.8
20260503180048 50 226 0.0 0.0 0.00 0.00 0.00 65 995.7
20260503174601 51 226 0.0 0.0 0.00 0.00 0.00 64 995.7
20260503173055 52 227 0.0 0.0 0.00 0.00 0.00 62 995.6
20260503171547 54 230 0.0 0.0 0.00 0.00 0.00 59 995.5
20260503081601 61 270 0.0 0.0 0.00 0.00 0.00 39 999.3
20260503071608 60 297 0.0 0.0 0.00 0.00 0.00 42 999.6
20260503070110 59 274 0.0 0.0 0.00 0.00 0.00 41 999.7
20260503054551 53 265 0.0 0.0 0.00 0.00 0.00 50 1000.0
20260503053035 54 277 0.0 0.0 0.00 0.00 0.00 50 1000.0
20260503051544 55 265 0.0 0.0 0.00 0.00 0.00 49 1000.1
20260503050031 54 270 0.0 0.0 0.00 0.00 0.00 51 1000.1
20260503044526 52 265 0.0 0.0 0.00 0.00 0.00 53 1000.1
20260503043024 51 260 0.0 0.0 0.00 0.00 0.00 54 1000.1
20260503041528 50 243 0.0 0.0 0.00 0.00 0.00 54 1000.2
20260503040018 48 265 0.0 0.0 0.00 0.00 0.00 58 1000.1